[[{"header":{"parameterUnit":"m.s-1","parameterCategory":1,"la1":30.2991,"la2":30.254,"lo1":-89.0895,"lo2":-89.0444,"dy":0.0017,"dx":0.0017,"nx":28,"ny":28,"refTime":"2024-07-19T03:00:00:Z","depth":0,"parameterNumber":2,"parameterNumberName":"U-component_of_WINDS"},"data":[0,0,0,0,0,0,0,0,0,0,0,0,0,0,0,0,0,0,0,0,0,0,0,0,0,0,0,0,0,0,0,0,0,0,0,0,0,0,0,0,0,0,0,0,0,0,0,0,0,0,0,0,0,0,0,0,0,0,2.6722,2.6722,0,2.6743,2.6743,2.6743,2.6686,2.6684,2.6682,2.668,2.6701,2.6703,2.6705,0,0,0,0,0,0,0,0,0,0,0,0,0,2.663,2.6632,2.6722,2.6722,2.6722,2.6743,2.6743,2.6743,2.6686,2.6684,2.6682,2.668,2.67,2.6703,2.6705,0,0,0,0,0,0,0,0,0,0,0,0,0,2.6662,2.6633,2.6722,2.6696,2.6694,2.6743,2.6743,2.6743,2.6686,2.6684,2.6681,2.6678,2.6699,2.6703,2.6706,2.678,0,0,2.6716,2.6717,0,0,0,0,0,0,0,0,2.6661,2.6666,2.67,2.6698,2.6696,2.6709,2.6718,2.6756,2.6687,2.6689,2.668,2.6677,2.6706,2.6708,2.6718,2.6781,2.6782,2.6716,2.6718,2.672,2.6721,0,0,0,0,0,0,0,2.6658,2.6664,2.673,2.67,2.6698,2.6683,2.6685,2.6725,2.6712,2.6689,2.6685,2.6688,2.6704,2.6715,2.6718,2.6782,2.6716,2.6719,2.6721,2.6723,2.6904,2.6907,0,0,0,0,0,0,2.666,2.6663,2.6729,2.6731,2.6671,2.6687,2.6689,2.6707,2.6712,2.671,2.669,2.6685,2.6711,2.6714,2.6719,2.6803,2.672,2.6723,2.6725,2.6901,2.6904,2.6908,0,0,0,0,0,0,2.6658,2.6666,2.6729,2.6696,2.6703,2.6691,2.6713,2.6709,2.672,2.6713,2.671,2.6704,2.6709,2.6714,2.6765,2.6803,2.6724,2.6727,2.6898,2.6902,2.6906,2.6975,0,0,0,0,0,0,2.6656,2.6666,2.6695,2.6697,2.6705,2.6775,2.6715,2.6712,2.6726,2.672,2.6725,2.6723,2.6707,2.676,2.6768,2.6806,2.673,2.6894,2.69,2.6905,2.6969,2.6981,2.6991,0,0,0,0,0,2.6652,2.6713,2.6696,2.6705,2.674,2.6777,2.6782,2.6762,2.673,2.6757,2.6752,2.6723,2.6798,2.6766,2.6774,2.6814,2.6892,2.6898,2.6904,2.6964,2.6978,2.6991,0,0,0,0,0,0,2.6716,2.6713,2.6694,2.6758,2.6768,2.6768,2.6802,2.6779,2.6798,2.6791,2.6766,2.6768,2.6822,2.6824,2.6787,2.6885,2.6839,2.6848,2.6882,2.6895,2.6906,2.6903,2.6733,0,0,0,0,0,2.6738,2.6768,2.6764,2.6821,2.6827,2.6814,2.683,2.6814,2.6823,2.6827,2.6826,2.6836,2.6861,2.6879,2.6902,2.6969,2.6968,2.7001,2.7012,2.7021,2.7028,2.7061,2.7074,2.6928,2.6928,2.6928,0,0,2.6782,2.6784,2.6806,2.6834,2.684,2.6871,2.6818,2.6854,2.6877,2.6832,2.6879,2.6879,2.6888,2.6947,2.6973,2.6949,2.7068,2.7029,2.7037,2.7038,2.7069,2.7082,2.7095,2.6933,2.6932,2.6931,0,0,2.6879,2.6885,2.6931,2.6938,2.6948,2.6938,2.695,2.6952,2.695,2.6997,2.6964,2.699,2.7036,2.7043,2.7053,2.7151,2.7123,2.7159,2.7216,2.7248,2.726,2.7269,2.7302,2.7314,2.7166,2.7167,2.7167,0,2.6932,2.6979,2.6958,2.6995,2.7008,2.6969,2.7015,2.7023,2.704,2.7049,2.7023,2.7078,2.7082,2.714,2.7164,2.7174,2.7184,2.7157,2.726,2.727,2.7279,2.7309,2.7321,2.7171,2.717,2.717,2.7169,0,2.7043,2.7076,2.7112,2.7128,2.7145,2.7187,2.7171,2.719,2.7173,2.7166,2.7213,2.7217,2.7239,2.7252,2.7236,2.7308,2.7292,2.7264,2.7217,2.7297,2.7325,2.7337,2.7177,2.7175,2.7174,2.7173,0,0,2.7179,2.7183,2.7196,2.7202,2.721,2.7234,2.7274,2.7295,2.7311,2.7324,2.7355,2.7394,2.7367,2.7378,2.7362,2.7391,2.7465,2.7358,2.7358,2.7375,2.7541,2.756,2.7574,2.7448,2.745,2.7452,2.7539,0,2.7272,2.7339,2.732,2.7387,2.7415,2.7379,2.7413,2.7421,2.7415,2.7438,2.7432,2.7459,2.7423,2.7429,2.7456,2.745,2.7497,2.7444,2.7474,2.7475,2.747,2.7589,2.761,2.7692,2.755,2.7552,2.7553,0,2.7389,2.7405,2.7474,2.7475,2.7486,2.7517,2.7534,2.7557,2.7565,2.7559,2.7571,2.7549,2.7586,2.7541,2.7591,2.7555,2.7566,2.7565,2.7568,2.7568,2.7517,2.759,2.7719,2.773,2.7571,2.757,2.7568,0,2.7477,2.7517,2.7563,2.7569,2.7572,2.7594,2.7597,2.7602,2.7615,2.763,2.7638,2.7658,2.7668,2.7684,2.7667,2.7636,2.7719,2.7673,2.7713,2.7713,2.773,2.7728,2.7859,2.7742,2.7742,2.7742,2.7741,0,2.7581,2.7624,2.7602,2.763,2.7676,2.7655,2.7701,2.77,2.7704,2.773,2.7701,2.7726,2.7704,2.7727,2.7714,2.7756,2.7762,2.7756,2.7752,2.7757,2.7758,2.7763,2.7755,2.7745,2.7744,2.7744,2.7743,0,2.7686,2.7674,2.7721,2.7719,2.772,2.7754,2.7752,2.7778,2.777,2.7803,2.781,2.7798,2.7823,2.7809,2.7835,2.7827,2.788,2.7869,2.7877,2.7873,2.7913,2.7908,2.8049,2.8066,2.7941,2.7942,2.7943,0,2.7752,2.7784,2.7785,2.78,2.7804,2.783,2.7843,2.7823,2.7838,2.7848,2.7872,2.7894,2.7911,2.7953,2.7946,2.7965,2.7953,2.8001,2.7956,2.7959,2.795,2.7947,2.7949,2.801,2.8011,2.8012,2.8013,0,2.7868,2.786,2.788,2.7898,2.7915,2.7928,2.7939,2.7953,2.7933,2.7951,2.7976,2.7989,2.8015,2.8037,2.8053,2.8055,2.803,2.8028,2.8038,2.8042,2.8044,2.804,2.7899,2.8024,2.8023,2.8022,2.8022,2.8021,2.7953,2.7979,2.7984,2.8007,2.8013,2.8023,2.8046,2.8041,2.8061,2.8081,2.8068,2.8097,2.8102,2.8121,2.8126,2.8148,2.8128,2.8143,2.8146,2.815,2.8154,2.8043,2.8151,2.8151,2.8151,2.815,2.815,0,2.8065,2.8067,2.8088,2.8103,2.8121,2.8097,2.8108,2.8124,2.815,2.8157,2.8174,2.8201,2.8222,2.8218,2.8236,2.8254,2.8243,2.826,2.8257,2.8257,2.8171,2.816,2.8268,2.8268,2.8268,2.8268,2.8268,2.8268,2.8126,2.8167,2.8159,2.8203,2.8203,2.8231,2.8239,2.8248,2.8253,2.8285,2.8302,2.8299,2.8301,2.8319,2.8337,2.8335,2.8342,2.8362,2.8355,2.8275,2.8263,2.8252,2.8241,2.8364,2.8364,2.8438,2.8439,2.844]},{"header":{"parameterUnit":"m.s-1","parameterCategory":1,"la1":30.2991,"la2":30.254,"lo1":-89.0895,"lo2":-89.0444,"dy":0.0017,"dx":0.0017,"nx":28,"ny":28,"refTime":"2024-07-19T03:00:00:Z","depth":0,"parameterNumber":3,"parameterNumberName":"V-component_of_WINDS"},"data":[0,0,0,0,0,0,0,0,0,0,0,0,0,0,0,0,0,0,0,0,0,0,0,0,0,0,0,0,0,0,0,0,0,0,0,0,0,0,0,0,0,0,0,0,0,0,0,0,0,0,0,0,0,0,0,0,0,0,3.3772,3.3774,0,3.3914,3.3916,3.3918,3.3927,3.3926,3.3924,3.3922,3.4066,3.4072,3.4077,0,0,0,0,0,0,0,0,0,0,0,0,0,3.3507,3.3512,3.3772,3.3774,3.3776,3.3914,3.3916,3.3918,3.3927,3.3925,3.3924,3.3922,3.4065,3.4071,3.4077,0,0,0,0,0,0,0,0,0,0,0,0,0,3.3633,3.3514,3.3772,3.3797,3.3801,3.3914,3.3916,3.3919,3.3928,3.3925,3.3923,3.3921,3.4063,3.407,3.4078,3.4175,0,0,3.4103,3.4106,0,0,0,0,0,0,0,0,3.3626,3.3643,3.3792,3.3796,3.38,3.3901,3.3875,3.4005,3.3928,3.388,3.3922,3.392,3.4013,3.4025,3.4057,3.4182,3.4188,3.4103,3.4108,3.4111,3.4114,0,0,0,0,0,0,0,3.3617,3.3637,3.3829,3.3794,3.3799,3.3801,3.3816,3.39,3.3958,3.3884,3.3885,3.3901,3.4015,3.4049,3.406,3.419,3.4103,3.411,3.4115,3.4118,3.44,3.4403,0,0,0,0,0,0,3.3604,3.363,3.3824,3.3833,3.3705,3.3808,3.3825,3.3871,3.3957,3.3968,3.3903,3.3901,3.4037,3.4051,3.4065,3.4184,3.4111,3.4119,3.4123,3.4398,3.4401,3.4404,0,0,0,0,0,0,3.3598,3.3621,3.3818,3.3732,3.3757,3.3815,3.3866,3.3875,3.3909,3.3972,3.3982,3.3928,3.4035,3.4054,3.4148,3.4189,3.4122,3.413,3.4394,3.4399,3.4402,3.4422,0,0,0,0,0,0,3.3591,3.3619,3.3657,3.3732,3.3761,3.3899,3.3869,3.3879,3.3923,3.3922,3.3998,3.4008,3.4035,3.4136,3.4155,3.4199,3.4136,3.4391,3.4396,3.4401,3.4418,3.4426,3.4433,0,0,0,0,0,3.3581,3.3657,3.3659,3.3682,3.381,3.3901,3.3918,3.3948,3.3926,3.3965,3.4005,3.4005,3.4181,3.4145,3.4168,3.4214,3.4389,3.4395,3.4401,3.4414,3.4424,3.4433,0,0,0,0,0,0,3.3585,3.3667,3.3671,3.3773,3.383,3.3903,3.3952,3.3958,3.4022,3.4018,3.4052,3.4069,3.4161,3.4197,3.4155,3.4311,3.4282,3.4293,3.4285,3.4295,3.4303,3.4292,3.4143,0,0,0,0,0,3.3598,3.3665,3.3733,3.3817,3.3846,3.3894,3.3935,3.3953,3.4013,3.4037,3.4084,3.4142,3.421,3.4255,3.4321,3.4423,3.4439,3.4465,3.4473,3.4479,3.4488,3.4544,3.4556,3.4424,3.4424,3.4424,0,0,3.3625,3.3678,3.3719,3.3819,3.3865,3.3934,3.3914,3.3988,3.4039,3.4048,3.4139,3.4176,3.4243,3.434,3.4386,3.4373,3.4528,3.4487,3.4491,3.4497,3.4551,3.4563,3.4575,3.4428,3.4427,3.4427,0,0,3.3709,3.3756,3.3831,3.3878,3.3948,3.3979,3.3997,3.4069,3.4094,3.4186,3.4194,3.4255,3.4372,3.4419,3.4458,3.4559,3.4562,3.458,3.462,3.4673,3.4684,3.4693,3.4728,3.4741,3.4588,3.4588,3.4588,0,3.3733,3.3838,3.3868,3.3942,3.3985,3.3997,3.4072,3.4116,3.4204,3.4234,3.4218,3.4365,3.4411,3.4519,3.4544,3.4575,3.4596,3.4571,3.468,3.469,3.4699,3.4733,3.4746,3.459,3.459,3.459,3.459,0,3.3864,3.3936,3.3987,3.4073,3.4122,3.4196,3.4237,3.4283,3.4297,3.4329,3.4422,3.4478,3.4555,3.4582,3.4596,3.4693,3.4682,3.4673,3.4644,3.4713,3.4745,3.4758,3.4592,3.4592,3.4591,3.4591,0,0,3.3955,3.4055,3.4074,3.4112,3.419,3.4246,3.432,3.4396,3.4435,3.4495,3.4557,3.4655,3.4647,3.4692,3.4711,3.4758,3.4833,3.4743,3.4745,3.4757,3.4942,3.4948,3.4963,3.4836,3.4838,3.484,3.4936,0,3.4047,3.418,3.4209,3.4323,3.4389,3.4401,3.4465,3.4519,3.4552,3.4612,3.4648,3.4717,3.4701,3.4728,3.4775,3.4814,3.4871,3.4808,3.4893,3.4896,3.4876,3.498,3.4987,3.5075,3.4949,3.4951,3.4953,0,3.4173,3.4236,3.4356,3.4425,3.4454,3.4511,3.4583,3.4641,3.4702,3.4722,3.4772,3.4786,3.4862,3.483,3.4935,3.4891,3.4928,3.4952,3.4957,3.4965,3.4928,3.4991,3.5104,3.5117,3.4973,3.4972,3.497,0,3.4226,3.4341,3.4428,3.446,3.4543,3.4583,3.4619,3.4678,3.4721,3.4784,3.4812,3.4882,3.492,3.4974,3.5006,3.498,3.5109,3.5079,3.5127,3.5126,3.5153,3.5151,3.5273,3.5178,3.5177,3.5177,3.5177,0,3.4326,3.4399,3.4453,3.4506,3.4588,3.462,3.47,3.4736,3.4789,3.4849,3.4863,3.4919,3.4958,3.5019,3.5045,3.5128,3.5145,3.5163,3.5169,3.5162,3.5159,3.5186,3.518,3.5181,3.518,3.5179,3.5179,0,3.4399,3.4439,3.4534,3.4604,3.4623,3.468,3.474,3.4791,3.4824,3.4899,3.4919,3.4969,3.5042,3.5079,3.517,3.5187,3.528,3.5283,3.5259,3.5262,3.5307,3.5302,3.545,3.5471,3.5362,3.5363,3.5364,0,3.446,3.4517,3.4593,3.4634,3.4671,3.4737,3.4781,3.4815,3.4861,3.4935,3.4977,3.5051,3.5111,3.5226,3.5271,3.534,3.5344,3.5391,3.5354,3.5345,3.5344,3.534,3.5345,3.5397,3.5398,3.5399,3.5399,0,3.4564,3.4581,3.4644,3.4714,3.4767,3.4824,3.488,3.4913,3.4956,3.5006,3.508,3.5127,3.5219,3.5292,3.5364,3.54,3.5407,3.5411,3.5425,3.5418,3.5402,3.5411,3.5277,3.5407,3.5406,3.5406,3.5405,3.5405,3.4633,3.4684,3.4745,3.4815,3.486,3.4912,3.4964,3.5003,3.5065,3.5143,3.5159,3.5238,3.5297,3.5395,3.5433,3.5495,3.5485,3.5506,3.5512,3.5516,3.5518,3.5393,3.5508,3.5508,3.5508,3.5508,3.5507,0,3.4737,3.4777,3.4841,3.4919,3.4974,3.4976,3.5038,3.5083,3.5152,3.5207,3.5266,3.5351,3.5421,3.5471,3.5542,3.5581,3.5586,3.5599,3.5596,3.5604,3.5523,3.5503,3.5594,3.5594,3.5594,3.5594,3.5594,3.5594,3.4798,3.4883,3.4906,3.5014,3.5053,3.513,3.5165,3.5213,3.5257,3.5351,3.5409,3.5441,3.5494,3.5569,3.5633,3.5646,3.5671,3.5683,3.5696,3.5619,3.561,3.5601,3.5583,3.5689,3.5689,3.5772,3.5773,3.5774]}]]